Date String (YYYY-MM-DD hh:mm:ss) UTC,Instrument flags,Ambient pressure (hPa),Sample flow (lpm),Bypass flow (lpm),Sample temperature (°C),Ambient temperature (°C),ASC tube jacket temperature (°C),LED temperature (°C),Box temperature (°C),Sample RH (%),Span deviation,Mass concentration (μg/m³),Mass concentration (μg/m³),Mass concentration (μg/m³)
DateTimeUTC,F1_M11,P_M11,Q1_M11,Q2_M11,T1_M11,T2_M11,T3_M11,T4_M11,T5_M11,U1_M11,ZSPAN_M11,X0_M11,X2_M11,X1_M11
2022-06-01 10:00:00,,0832.5,5.01,0.00,25.3,24.2,00.0,34.4,27.1,21.8,0000.0,0001.10,0000.72,0000.56
2022-06-01 10:01:00,,0832.4,4.99,0.00,25.3,24.2,00.0,34.4,27.1,22.4,0000.0,0001.10,0000.72,0000.56
2022-06-01 10:02:00,,0832.5,5.01,0.00,25.3,24.2,00.0,34.3,27.1,23.7,0000.0,0001.06,0000.71,0000.56
2022-06-01 10:03:00,,0832.5,5.01,0.00,25.3,24.1,00.0,34.3,27.1,22.8,0000.0,0001.03,0000.70,0000.58
2022-06-01 10:04:00,,0832.4,4.99,0.00,25.2,24.1,00.0,34.3,27.1,22.2,0000.0,0001.03,0000.72,0000.58
2022-06-01 10:05:00,,0832.4,5.00,0.00,25.2,24.1,00.0,34.3,27.1,22.1,0000.0,0001.05,0000.74,0000.57
2022-06-01 10:06:00,,0832.4,5.01,0.00,25.2,24.1,00.0,34.3,27.1,22.1,0000.0,0001.01,0000.72,0000.57
2022-06-01 10:07:00,,0832.4,5.00,0.00,25.2,24.1,00.0,34.3,27.1,22.1,0000.0,0001.09,0000.77,0000.58
2022-06-01 10:08:00,,0832.3,5.00,0.00,25.2,24.1,00.0,34.3,27.1,22.0,0000.0,0001.05,0000.75,0000.58
2022-06-01 10:09:00,,0832.3,5.00,0.00,25.2,24.1,00.0,34.3,27.1,22.0,0000.0,0001.10,0000.75,0000.58
2022-06-01 10:10:00,,0832.3,5.00,0.00,25.2,24.1,00.0,34.3,27.1,22.0,0000.0,0001.08,0000.75,0000.58
2022-06-01 10:11:00,,0832.3,5.00,0.00,25.2,24.1,00.0,34.2,27.1,22.1,0000.0,0001.10,0000.76,0000.59
2022-06-01 10:12:00,,0832.4,5.00,0.00,25.2,24.1,00.0,34.2,27.1,22.1,0000.0,0001.23,0000.81,0000.59
2022-06-01 10:13:00,,0832.4,5.00,0.00,25.2,24.1,00.0,34.2,27.1,22.1,0000.0,0001.28,0000.82,0000.60
2022-06-01 10:14:00,,0832.3,5.00,0.00,25.2,24.1,00.0,34.2,27.1,22.1,0000.0,0001.27,0000.82,0000.60
2022-06-01 10:15:00,,0832.3,5.01,0.00,25.2,24.1,00.0,34.2,27.1,22.0,0000.0,0001.26,0000.81,0000.61
2022-06-01 10:16:00,,0832.3,4.99,0.00,25.2,24.1,00.0,34.2,27.1,22.0,0000.0,0001.24,0000.79,0000.62
2022-06-01 10:17:00,,0832.3,5.01,0.00,25.2,24.1,00.0,34.2,27.1,21.9,0000.0,0001.22,0000.79,0000.63
2022-06-01 10:18:00,,0832.3,5.00,0.00,25.2,24.1,00.0,34.2,27.1,21.9,0000.0,0001.15,0000.76,0000.62
2022-06-01 10:19:00,,0832.3,5.00,0.00,25.2,24.1,00.0,34.2,27.1,21.9,0000.0,0001.13,0000.74,0000.62
2022-06-01 10:20:00,,0832.2,5.00,0.00,25.2,24.1,00.0,34.2,27.0,21.8,0000.0,0001.10,0000.75,0000.62
2022-06-01 10:21:00,,0832.2,5.00,0.00,25.2,24.1,00.0,34.2,27.0,21.8,0000.0,0001.08,0000.75,0000.61
2022-06-01 10:22:00,,0832.2,5.00,0.00,25.2,24.1,00.0,34.2,27.0,21.8,0000.0,0001.12,0000.76,0000.61
2022-06-01 10:23:00,,0832.2,5.00,0.00,25.2,24.1,00.0,34.2,27.1,21.8,0000.0,0001.05,0000.73,0000.60
2022-06-01 10:24:00,,0832.2,5.00,0.00,25.2,24.1,00.0,34.2,27.1,21.8,0000.0,0000.91,0000.69,0000.59
2022-06-01 10:25:00,,0832.3,4.99,0.00,25.2,24.1,00.0,34.2,27.1,21.8,0000.0,0000.92,0000.69,0000.59
2022-06-01 10:26:00,,0832.4,5.00,0.00,25.1,24.1,00.0,34.2,27.0,21.8,0000.0,0000.89,0000.67,0000.58
2022-06-01 10:27:00,,0832.4,5.00,0.00,25.1,24.1,00.0,34.2,27.0,21.8,0000.0,0000.89,0000.68,0000.57
2022-06-01 10:28:00,,0832.3,5.00,0.00,25.1,24.1,00.0,34.2,27.0,21.8,0000.0,0000.88,0000.67,0000.57
2022-06-01 10:29:00,,0832.4,5.00,0.00,25.1,24.1,00.0,34.1,27.0,21.8,0000.0,0000.88,0000.67,0000.56
2022-06-01 10:30:00,,0832.4,5.01,0.00,25.1,24.1,00.0,34.1,27.0,21.8,0000.0,0000.87,0000.66,0000.55
2022-06-01 10:31:00,,0832.4,5.00,0.00,25.1,24.1,00.0,34.1,27.0,21.8,0000.0,0000.90,0000.67,0000.56
2022-06-01 10:32:00,,0832.4,4.99,0.00,25.1,24.1,00.0,34.1,27.0,21.8,0000.0,0000.86,0000.66,0000.56
2022-06-01 10:33:00,,0832.5,5.00,0.00,25.1,24.1,00.0,34.1,27.0,21.8,0000.0,0000.83,0000.64,0000.55
2022-06-01 10:34:00,,0832.5,5.01,0.00,25.1,24.1,00.0,34.1,27.0,21.9,0000.0,0000.85,0000.64,0000.55
2022-06-01 10:35:00,,0832.5,4.99,0.00,25.1,24.1,00.0,34.1,27.0,21.9,0000.0,0000.86,0000.65,0000.55
2022-06-01 10:36:00,,0832.5,5.00,0.00,25.1,24.1,00.0,34.1,27.0,22.0,0000.0,0000.84,0000.64,0000.55
2022-06-01 10:37:00,,0832.5,5.00,0.00,25.1,24.1,00.0,34.1,27.0,22.0,0000.0,0000.84,0000.64,0000.55
2022-06-01 10:38:00,,0832.5,5.01,0.00,25.1,24.0,00.0,34.1,27.0,22.0,0000.0,0000.86,0000.64,0000.55
2022-06-01 10:39:00,,0832.5,4.99,0.00,25.1,24.0,00.0,34.1,27.0,22.0,0000.0,0000.86,0000.64,0000.55
2022-06-01 10:40:00,,0832.6,5.00,0.00,25.1,24.0,00.0,34.1,27.0,22.0,0000.0,0000.86,0000.65,0000.56
2022-06-01 10:41:00,,0832.7,5.01,0.00,25.1,24.0,00.0,34.1,27.0,22.0,0000.0,0000.90,0000.66,0000.57
2022-06-01 10:42:00,,0832.7,5.00,0.00,25.1,24.0,00.0,34.1,26.9,22.0,0000.0,0000.85,0000.64,0000.56
2022-06-01 10:43:00,,0832.7,5.00,0.00,25.0,24.0,00.0,34.1,26.9,22.0,0000.0,0000.87,0000.65,0000.57
2022-06-01 10:44:00,,0832.7,5.01,0.00,25.0,24.0,00.0,34.1,26.9,22.1,0000.0,0000.86,0000.65,0000.57
2022-06-01 10:45:00,,0832.6,5.00,0.00,25.0,24.0,00.0,34.0,26.9,22.1,0000.0,0000.87,0000.65,0000.58
2022-06-01 10:46:00,,0832.6,4.99,0.00,25.0,24.0,00.0,34.0,26.9,22.0,0000.0,0000.89,0000.66,0000.57
2022-06-01 10:47:00,,0832.6,5.01,0.00,25.0,24.0,00.0,34.0,26.9,22.1,0000.0,0000.89,0000.66,0000.57
2022-06-01 10:48:00,,0832.5,4.99,0.00,25.0,24.0,00.0,34.0,26.9,22.1,0000.0,0000.88,0000.66,0000.58
2022-06-01 10:49:00,,0832.5,4.99,0.00,25.0,24.0,00.0,34.0,26.9,22.0,0000.0,0000.83,0000.64,0000.57
2022-06-01 10:50:00,,0832.5,5.01,0.00,25.0,24.0,00.0,34.0,26.9,22.0,0000.0,0000.86,0000.64,0000.57
2022-06-01 10:51:00,,0832.4,5.00,0.00,25.0,24.0,00.0,34.0,26.9,22.0,0000.0,0000.87,0000.65,0000.57
2022-06-01 10:52:00,,0832.5,5.00,0.00,25.0,24.0,00.0,34.0,26.9,21.9,0000.0,0000.87,0000.64,0000.56
2022-06-01 10:53:00,,0832.5,5.00,0.00,25.0,24.0,00.0,34.0,26.9,21.9,0000.0,0000.88,0000.64,0000.55
2022-06-01 10:54:00,,0832.5,5.01,0.00,25.0,24.0,00.0,34.0,27.0,21.9,0000.0,0000.89,0000.64,0000.55
2022-06-01 10:55:00,,0832.7,4.98,0.00,25.1,24.0,00.0,34.0,27.0,22.1,0000.0,0000.88,0000.63,0000.55
2022-06-01 10:56:00,,0832.7,5.01,0.00,25.1,24.1,00.0,34.0,27.0,22.1,0000.0,0000.83,0000.62,0000.54
2022-06-01 10:57:00,,0832.7,5.00,0.00,25.1,24.1,00.0,34.0,27.0,21.9,0000.0,0000.78,0000.60,0000.54
2022-06-01 10:58:00,,0832.6,4.99,0.00,25.1,24.1,00.0,34.0,27.0,21.9,0000.0,0000.81,0000.60,0000.53
2022-06-01 10:59:00,,0832.5,5.01,0.00,25.1,24.1,00.0,34.0,27.0,21.8,0000.0,0000.81,0000.60,0000.52
